| time (UTC) | temp C | wind direction | speed KPH | gust KPH | rain 1hr cm | rain 24hr cm | rain mn cm | humidity % | barometer mb |
| 20260502130507 | 20 | 201 | 0.0 | 1.6 | 0.00 | 0.00 | 0.00 | 29 | 1013.4 |
| 20260502123506 | 20 | 238 | 0.0 | 0.0 | 0.00 | 0.00 | 0.00 | 30 | 1013.1 |
| 20260502123012 | 20 | 238 | 0.0 | 0.0 | 0.00 | 0.00 | 0.00 | 30 | 1013.0 |
| 20260502122506 | 20 | 238 | 0.0 | 1.6 | 0.00 | 0.00 | 0.00 | 29 | 1012.9 |
| 20260502122009 | 21 | 238 | 0.0 | 1.6 | 0.00 | 0.00 | 0.00 | 28 | 1012.8 |
| 20260502121514 | 21 | 238 | 0.0 | 1.6 | 0.00 | 0.00 | 0.00 | 28 | 1012.8 |
| 20260502121008 | 21 | 238 | 0.0 | 1.6 | 0.00 | 0.00 | 0.00 | 28 | 1012.8 |
| 20260502120514 | 21 | 238 | 0.0 | 1.6 | 0.00 | 0.00 | 0.00 | 27 | 1012.7 |
| 20260502115508 | 21 | 238 | 0.0 | 0.0 | 0.00 | 0.00 | 0.00 | 27 | 1012.7 |
| 20260502115007 | 21 | 238 | 0.0 | 0.0 | 0.00 | 0.00 | 0.00 | 27 | 1012.6 |
| 20260502114508 | 21 | 238 | 0.0 | 1.6 | 0.00 | 0.00 | 0.00 | 27 | 1012.7 |
| 20260502114006 | 22 | 238 | 0.0 | 1.6 | 0.00 | 0.00 | 0.00 | 27 | 1012.7 |
| 20260502113506 | 22 | 238 | 0.0 | 1.6 | 0.00 | 0.00 | 0.00 | 26 | 1012.6 |
| 20260502113009 | 22 | 238 | 0.0 | 1.6 | 0.00 | 0.00 | 0.00 | 26 | 1012.7 |
| 20260502112506 | 22 | 238 | 0.0 | 1.6 | 0.00 | 0.00 | 0.00 | 25 | 1012.7 |
| 20260502112007 | 23 | 238 | 0.0 | 1.6 | 0.00 | 0.00 | 0.00 | 24 | 1012.6 |
| 20260502111517 | 23 | 238 | 0.0 | 1.6 | 0.00 | 0.00 | 0.00 | 24 | 1012.5 |
| 20260502111007 | 24 | 238 | 0.0 | 3.2 | 0.00 | 0.00 | 0.00 | 23 | 1012.5 |
| 20260502110508 | 25 | 139 | 1.6 | 9.7 | 0.00 | 0.00 | 0.00 | 20 | 1012.5 |
| 20260502110021 | 25 | 112 | 0.0 | 9.7 | 0.00 | 0.00 | 0.00 | 20 | 1012.4 |
| 20260502105509 | 25 | 34 | 3.2 | 8.0 | 0.00 | 0.00 | 0.00 | 20 | 1012.3 |
| 20260502105008 | 25 | 98 | 3.2 | 9.7 | 0.00 | 0.00 | 0.00 | 20 | 1012.2 |
| 20260502104519 | 25 | 46 | 3.2 | 9.7 | 0.00 | 0.00 | 0.00 | 20 | 1012.2 |
| 20260502104005 | 25 | 56 | 1.6 | 14.5 | 0.00 | 0.00 | 0.00 | 20 | 1012.1 |
| 20260502103502 | 25 | 127 | 3.2 | 14.5 | 0.00 | 0.00 | 0.00 | 20 | 1012.1 |
| 20260502103008 | 25 | 104 | 6.4 | 14.5 | 0.00 | 0.00 | 0.00 | 20 | 1011.9 |
| 20260502102507 | 25 | 94 | 3.2 | 12.9 | 0.00 | 0.00 | 0.00 | 20 | 1012.0 |
| 20260502102007 | 25 | 63 | 1.6 | 8.0 | 0.00 | 0.00 | 0.00 | 20 | 1012.0 |
| 20260502101513 | 25 | 44 | 3.2 | 12.9 | 0.00 | 0.00 | 0.00 | 20 | 1012.0 |
| 20260502101007 | 25 | 293 | 4.8 | 12.9 | 0.00 | 0.00 | 0.00 | 20 | 1012.0 |
| 20260502100508 | 25 | 107 | 1.6 | 12.9 | 0.00 | 0.00 | 0.00 | 20 | 1012.0 |
| 20260502091508 | 25 | 153 | 3.2 | 9.7 | 0.00 | 0.00 | 0.00 | 21 | 1011.9 |
| 20260502091006 | 26 | 111 | 3.2 | 9.7 | 0.00 | 0.00 | 0.00 | 20 | 1011.9 |
| 20260502090506 | 26 | 148 | 4.8 | 11.3 | 0.00 | 0.00 | 0.00 | 20 | 1011.8 |
| 20260502071522 | 26 | 110 | 1.6 | 4.8 | 0.00 | 0.00 | 0.00 | 19 | 1011.4 |
| 20260502071009 | 26 | 116 | 1.6 | 6.4 | 0.00 | 0.00 | 0.00 | 19 | 1011.3 |
| 20260502070512 | 26 | 119 | 3.2 | 6.4 | 0.00 | 0.00 | 0.00 | 19 | 1011.4 |
| 20260502070024 | 26 | 116 | 0.0 | 9.7 | 0.00 | 0.00 | 0.00 | 19 | 1011.4 |
| 20260502065507 | 26 | 94 | 3.2 | 9.7 | 0.00 | 0.00 | 0.00 | 20 | 1011.3 |
| 20260502065006 | 26 | 143 | 1.6 | 8.0 | 0.00 | 0.00 | 0.00 | 21 | 1011.3 |
| 20260502064513 | 26 | 133 | 1.6 | 3.2 | 0.00 | 0.00 | 0.00 | 21 | 1011.3 |
| 20260502064006 | 26 | 113 | 1.6 | 3.2 | 0.00 | 0.00 | 0.00 | 20 | 1011.3 |
| 20260502063507 | 26 | 156 | 0.0 | 1.6 | 0.00 | 0.00 | 0.00 | 20 | 1011.3 |
| 20260502063016 | 26 | 154 | 0.0 | 1.6 | 0.00 | 0.00 | 0.00 | 19 | 1011.3 |
| 20260502062506 | 26 | 129 | 0.0 | 1.6 | 0.00 | 0.00 | 0.00 | 19 | 1011.2 |
| 20260502062012 | 26 | 105 | 0.0 | 4.8 | 0.00 | 0.00 | 0.00 | 18 | 1011.2 |
| 20260502061523 | 26 | 94 | 0.0 | 9.7 | 0.00 | 0.00 | 0.00 | 18 | 1011.2 |
| 20260502061010 | 26 | 228 | 0.0 | 9.7 | 0.00 | 0.00 | 0.00 | 18 | 1011.1 |
| 20260502060514 | 26 | 69 | 0.0 | 4.8 | 0.00 | 0.00 | 0.00 | 18 | 1011.2 |
| 20260502060025 | 26 | 123 | 0.0 | 1.6 | 0.00 | 0.00 | 0.00 | 18 | 1011.1 |
| 20260502055510 | 26 | 124 | 0.0 | 3.2 | 0.00 | 0.00 | 0.00 | 17 | 1011.0 |
| 20260502055009 | 26 | 129 | 0.0 | 3.2 | 0.00 | 0.00 | 0.00 | 17 | 1011.0 |
| 20260502054522 | 26 | 98 | 0.0 | 3.2 | 0.00 | 0.00 | 0.00 | 17 | 1010.9 |
| 20260502054005 | 26 | 102 | 1.6 | 3.2 | 0.00 | 0.00 | 0.00 | 17 | 1011.0 |
| 20260502053506 | 26 | 156 | 0.0 | 3.2 | 0.00 | 0.00 | 0.00 | 17 | 1010.9 |
| 20260502053014 | 27 | 113 | 1.6 | 3.2 | 0.00 | 0.00 | 0.00 | 17 | 1010.8 |
| 20260502052507 | 27 | 127 | 0.0 | 6.4 | 0.00 | 0.00 | 0.00 | 17 | 1010.8 |
| 20260502052008 | 27 | 157 | 1.6 | 6.4 | 0.00 | 0.00 | 0.00 | 17 | 1010.9 |
| 20260502051527 | 27 | 82 | 3.2 | 6.4 | 0.00 | 0.00 | 0.00 | 17 | 1010.8 |
| 20260502051006 | 27 | 136 | 1.6 | 4.8 | 0.00 | 0.00 | 0.00 | 18 | 1010.8 |
| 20260502050509 | 27 | 107 | 1.6 | 3.2 | 0.00 | 0.00 | 0.00 | 18 | 1010.8 |
| 20260502050023 | 27 | 120 | 0.0 | 3.2 | 0.00 | 0.00 | 0.00 | 19 | 1010.8 |
| 20260502045508 | 27 | 165 | 0.0 | 3.2 | 0.00 | 0.00 | 0.00 | 19 | 1010.7 |
| 20260502045010 | 27 | 118 | 0.0 | 1.6 | 0.00 | 0.00 | 0.00 | 19 | 1010.7 |
| 20260502044524 | 27 | 131 | 0.0 | 1.6 | 0.00 | 0.00 | 0.00 | 19 | 1010.8 |
| 20260502044009 | 27 | 126 | 0.0 | 3.2 | 0.00 | 0.00 | 0.00 | 19 | 1010.8 |
| 20260502043510 | 27 | 89 | 0.0 | 3.2 | 0.00 | 0.00 | 0.00 | 19 | 1010.8 |
| 20260502043030 | 27 | 88 | 0.0 | 1.6 | 0.00 | 0.00 | 0.00 | 19 | 1010.8 |
| 20260502042506 | 27 | 86 | 0.0 | 3.2 | 0.00 | 0.00 | 0.00 | 19 | 1010.7 |
| 20260502042007 | 27 | 84 | 0.0 | 3.2 | 0.00 | 0.00 | 0.00 | 19 | 1010.7 |
| 20260502041516 | 27 | 82 | 1.6 | 3.2 | 0.00 | 0.00 | 0.00 | 19 | 1010.6 |
| 20260502041006 | 27 | 120 | 1.6 | 3.2 | 0.00 | 0.00 | 0.00 | 20 | 1010.6 |
| 20260502040507 | 27 | 126 | 0.0 | 1.6 | 0.00 | 0.00 | 0.00 | 20 | 1010.5 |
| 20260502040021 | 27 | 128 | 1.6 | 1.6 | 0.00 | 0.00 | 0.00 | 20 | 1010.5 |
| 20260502035508 | 26 | 134 | 0.0 | 1.6 | 0.00 | 0.00 | 0.00 | 21 | 1010.4 |
| 20260502035009 | 27 | 149 | 0.0 | 0.0 | 0.00 | 0.00 | 0.00 | 21 | 1010.3 |
| 20260502034525 | 27 | 149 | 0.0 | 0.0 | 0.00 | 0.00 | 0.00 | 21 | 1010.3 |
| 20260502034008 | 27 | 149 | 0.0 | 0.0 | 0.00 | 0.00 | 0.00 | 20 | 1010.2 |
| 20260502033510 | 27 | 149 | 0.0 | 0.0 | 0.00 | 0.00 | 0.00 | 20 | 1010.2 |
| 20260502033026 | 27 | 149 | 0.0 | 0.0 | 0.00 | 0.00 | 0.00 | 20 | 1010.1 |
| 20260502032509 | 27 | 149 | 0.0 | 0.0 | 0.00 | 0.00 | 0.00 | 20 | 1010.1 |
| 20260502032008 | 27 | 149 | 0.0 | 0.0 | 0.00 | 0.00 | 0.00 | 20 | 1010.0 |
| 20260502031525 | 27 | 149 | 0.0 | 1.6 | 0.00 | 0.00 | 0.00 | 21 | 1009.9 |
| 20260502031009 | 27 | 149 | 0.0 | 1.6 | 0.00 | 0.00 | 0.00 | 20 | 1009.8 |
| 20260502030507 | 27 | 217 | 0.0 | 1.6 | 0.00 | 0.00 | 0.00 | 20 | 1009.8 |
| 20260502030018 | 27 | 217 | 0.0 | 0.0 | 0.00 | 0.00 | 0.00 | 21 | 1009.8 |
| 20260502025510 | 27 | 217 | 0.0 | 1.6 | 0.00 | 0.00 | 0.00 | 21 | 1009.7 |
| 20260502025007 | 27 | 217 | 0.0 | 1.6 | 0.00 | 0.00 | 0.00 | 21 | 1009.7 |
| 20260502024504 | 28 | 217 | 0.0 | 1.6 | 0.00 | 0.00 | 0.00 | 21 | 1009.6 |
| 20260502024003 | 28 | 217 | 0.0 | 0.0 | 0.00 | 0.00 | 0.00 | 21 | 1009.5 |
| 20260502023503 | 28 | 217 | 0.0 | 0.0 | 0.00 | 0.00 | 0.00 | 20 | 1009.4 |
| 20260502023007 | 28 | 217 | 0.0 | 0.0 | 0.00 | 0.00 | 0.00 | 20 | 1009.4 |
| 20260502022505 | 28 | 217 | 0.0 | 0.0 | 0.00 | 0.00 | 0.00 | 20 | 1009.3 |
| 20260502022003 | 28 | 168 | 0.0 | 0.0 | 0.00 | 0.00 | 0.00 | 20 | 1009.3 |
| 20260502021510 | 29 | 169 | 0.0 | 1.6 | 0.00 | 0.00 | 0.00 | 19 | 1009.2 |
| 20260502021004 | 29 | 169 | 0.0 | 1.6 | 0.00 | 0.00 | 0.00 | 19 | 1009.2 |
| 20260502020509 | 30 | 257 | 0.0 | 1.6 | 0.00 | 0.00 | 0.00 | 18 | 1009.2 |
| 20260502020014 | 30 | 255 | 0.0 | 1.6 | 0.00 | 0.00 | 0.00 | 19 | 1009.1 |
| 20260502015510 | 30 | 205 | 0.0 | 3.2 | 0.00 | 0.00 | 0.00 | 19 | 1009.1 |
| 20260502015006 | 30 | 199 | 0.0 | 3.2 | 0.00 | 0.00 | 0.00 | 18 | 1009.1 |
| 20260502014518 | 31 | 274 | 0.0 | 3.2 | 0.00 | 0.00 | 0.00 | 18 | 1009.1 |
| 20260502014014 | 31 | 265 | 0.0 | 8.0 | 0.00 | 0.00 | 0.00 | 18 | 1009.0 |
| 20260502013503 | 31 | 302 | 1.6 | 8.0 | 0.00 | 0.00 | 0.00 | 18 | 1009.1 |
| 20260502013008 | 31 | 216 | 1.6 | 4.8 | 0.00 | 0.00 | 0.00 | 18 | 1009.1 |
| 20260502012505 | 31 | 244 | 0.0 | 4.8 | 0.00 | 0.00 | 0.00 | 18 | 1009.0 |
| 20260502012007 | 31 | 217 | 0.0 | 4.8 | 0.00 | 0.00 | 0.00 | 18 | 1009.0 |
| 20260502011508 | 31 | 258 | 0.0 | 6.4 | 0.00 | 0.00 | 0.00 | 18 | 1009.1 |
| 20260502011004 | 31 | 283 | 1.6 | 8.0 | 0.00 | 0.00 | 0.00 | 17 | 1009.2 |
| 20260502010506 | 31 | 253 | 0.0 | 8.0 | 0.00 | 0.00 | 0.00 | 17 | 1009.2 |
| 20260502010020 | 31 | 257 | 1.6 | 8.0 | 0.00 | 0.00 | 0.00 | 17 | 1009.2 |
| 20260502005507 | 32 | 248 | 1.6 | 4.8 | 0.00 | 0.00 | 0.00 | 18 | 1009.1 |
| 20260502005012 | 32 | 247 | 1.6 | 4.8 | 0.00 | 0.00 | 0.00 | 18 | 1009.2 |
| 20260502004516 | 32 | 295 | 1.6 | 6.4 | 0.00 | 0.00 | 0.00 | 18 | 1009.2 |
| 20260502004019 | 32 | 243 | 1.6 | 6.4 | 0.00 | 0.00 | 0.00 | 18 | 1009.1 |
| 20260502003505 | 32 | 295 | 1.6 | 12.9 | 0.00 | 0.00 | 0.00 | 18 | 1009.1 |
| 20260502003018 | 32 | 212 | 3.2 | 12.9 | 0.00 | 0.00 | 0.00 | 17 | 1009.1 |
| 20260502002511 | 32 | 248 | 1.6 | 4.8 | 0.00 | 0.00 | 0.00 | 17 | 1009.1 |
| 20260502002003 | 32 | 216 | 1.6 | 9.7 | 0.00 | 0.00 | 0.00 | 17 | 1009.2 |
| 20260502001504 | 32 | 271 | 3.2 | 9.7 | 0.00 | 0.00 | 0.00 | 17 | 1009.2 |
| 20260502001004 | 32 | 239 | 3.2 | 9.7 | 0.00 | 0.00 | 0.00 | 17 | 1009.3 |
| 20260502000503 | 32 | 287 | 0.0 | 11.3 | 0.00 | 0.00 | 0.00 | 17 | 1009.3 |
| 20260502000014 | 32 | 223 | 4.8 | 11.3 | 0.00 | 0.00 | 0.00 | 17 | 1009.2 |
| 20260501235507 | 32 | 244 | 1.6 | 6.4 | 0.00 | 0.00 | 0.00 | 17 | 1009.3 |
| 20260501235009 | 32 | 250 | 3.2 | 6.4 | 0.00 | 0.00 | 0.00 | 17 | 1009.4 |
| 20260501234512 | 32 | 255 | 1.6 | 6.4 | 0.00 | 0.00 | 0.00 | 17 | 1009.4 |
| 20260501234007 | 32 | 276 | 3.2 | 9.7 | 0.00 | 0.00 | 0.00 | 17 | 1009.4 |
| 20260501233512 | 32 | 243 | 0.0 | 9.7 | 0.00 | 0.00 | 0.00 | 17 | 1009.4 |
| 20260501233014 | 32 | 242 | 4.8 | 12.9 | 0.00 | 0.00 | 0.00 | 16 | 1009.4 |
| 20260501232509 | 32 | 210 | 4.8 | 12.9 | 0.00 | 0.00 | 0.00 | 16 | 1009.5 |
| 20260501232010 | 32 | 215 | 3.2 | 9.7 | 0.00 | 0.00 | 0.00 | 17 | 1009.5 |
| 20260501231522 | 32 | 255 | 1.6 | 9.7 | 0.00 | 0.00 | 0.00 | 18 | 1009.6 |
| 20260501231007 | 32 | 224 | 1.6 | 8.0 | 0.00 | 0.00 | 0.00 | 18 | 1009.5 |
| 20260501230504 | 32 | 281 | 1.6 | 8.0 | 0.00 | 0.00 | 0.00 | 19 | 1009.5 |
| 20260501230007 | 32 | 243 | 1.6 | 9.7 | 0.00 | 0.00 | 0.00 | 18 | 1009.6 |
| 20260501225504 | 31 | 319 | 3.2 | 11.3 | 0.00 | 0.00 | 0.00 | 19 | 1009.6 |
| 20260501225003 | 32 | 266 | 3.2 | 11.3 | 0.00 | 0.00 | 0.00 | 19 | 1009.7 |
| 20260501224509 | 32 | 311 | 3.2 | 6.4 | 0.00 | 0.00 | 0.00 | 19 | 1009.7 |
| 20260501224005 | 31 | 219 | 0.0 | 8.0 | 0.00 | 0.00 | 0.00 | 20 | 1009.7 |
| 20260501223504 | 31 | 250 | 3.2 | 8.0 | 0.00 | 0.00 | 0.00 | 20 | 1009.8 |
| 20260501223011 | 32 | 226 | 3.2 | 11.3 | 0.00 | 0.00 | 0.00 | 20 | 1009.9 |
| 20260501222507 | 31 | 207 | 3.2 | 14.5 | 0.00 | 0.00 | 0.00 | 20 | 1010.0 |
| 20260501222011 | 31 | 264 | 1.6 | 14.5 | 0.00 | 0.00 | 0.00 | 21 | 1010.1 |
| 20260501221517 | 31 | 249 | 3.2 | 8.0 | 0.00 | 0.00 | 0.00 | 21 | 1010.1 |
| 20260501221008 | 32 | 238 | 1.6 | 11.3 | 0.00 | 0.00 | 0.00 | 20 | 1010.2 |
| 20260501220511 | 31 | 219 | 3.2 | 12.9 | 0.00 | 0.00 | 0.00 | 21 | 1010.2 |
| 20260501220024 | 31 | 254 | 3.2 | 12.9 | 0.00 | 0.00 | 0.00 | 20 | 1010.2 |
| 20260501215509 | 31 | 237 | 4.8 | 8.0 | 0.00 | 0.00 | 0.00 | 20 | 1010.4 |
| 20260501215010 | 31 | 233 | 1.6 | 9.7 | 0.00 | 0.00 | 0.00 | 22 | 1010.5 |
| 20260501214505 | 31 | 249 | 3.2 | 9.7 | 0.00 | 0.00 | 0.00 | 20 | 1010.5 |
| 20260501214003 | 31 | 172 | 1.6 | 8.0 | 0.00 | 0.00 | 0.00 | 21 | 1010.6 |
| 20260501213503 | 31 | 229 | 1.6 | 8.0 | 0.00 | 0.00 | 0.00 | 21 | 1010.7 |
| 20260501213011 | 31 | 247 | 0.0 | 8.0 | 0.00 | 0.00 | 0.00 | 21 | 1010.8 |
| 20260501212504 | 30 | 252 | 3.2 | 11.3 | 0.00 | 0.00 | 0.00 | 21 | 1010.8 |
| 20260501212006 | 30 | 255 | 4.8 | 11.3 | 0.00 | 0.00 | 0.00 | 21 | 1010.9 |
| 20260501211515 | 31 | 226 | 3.2 | 19.3 | 0.00 | 0.00 | 0.00 | 20 | 1011.0 |
| 20260501211009 | 31 | 295 | 4.8 | 19.3 | 0.00 | 0.00 | 0.00 | 21 | 1011.0 |
| 20260501210507 | 31 | 220 | 1.6 | 8.0 | 0.00 | 0.00 | 0.00 | 20 | 1011.1 |
| 20260501210022 | 31 | 89 | 3.2 | 8.0 | 0.00 | 0.00 | 0.00 | 20 | 1011.1 |
| 20260501205508 | 31 | 231 | 1.6 | 6.4 | 0.00 | 0.00 | 0.00 | 20 | 1011.2 |
| 20260501205009 | 32 | 250 | 1.6 | 8.0 | 0.00 | 0.00 | 0.00 | 20 | 1011.3 |
| 20260501204522 | 31 | 242 | 1.6 | 8.0 | 0.00 | 0.00 | 0.00 | 21 | 1011.4 |
| 20260501204007 | 31 | 287 | 1.6 | 8.0 | 0.00 | 0.00 | 0.00 | 21 | 1011.4 |
| 20260501203509 | 30 | 95 | 1.6 | 11.3 | 0.00 | 0.00 | 0.00 | 22 | 1011.4 |
| 20260501203006 | 30 | 234 | 1.6 | 11.3 | 0.00 | 0.00 | 0.00 | 23 | 1011.5 |
| 20260501202504 | 30 | 236 | 1.6 | 11.3 | 0.00 | 0.00 | 0.00 | 22 | 1011.5 |
| 20260501202008 | 30 | 248 | 1.6 | 11.3 | 0.00 | 0.00 | 0.00 | 23 | 1011.6 |
| 20260501201510 | 31 | 229 | 3.2 | 6.4 | 0.00 | 0.00 | 0.00 | 22 | 1011.6 |
| 20260501201006 | 31 | 258 | 1.6 | 6.4 | 0.00 | 0.00 | 0.00 | 22 | 1011.6 |
| 20260501200509 | 30 | 193 | 1.6 | 9.7 | 0.00 | 0.00 | 0.00 | 23 | 1011.7 |
| 20260501200017 | 30 | 246 | 3.2 | 9.7 | 0.00 | 0.00 | 0.00 | 24 | 1011.7 |
| 20260501195509 | 29 | 237 | 1.6 | 9.7 | 0.00 | 0.00 | 0.00 | 24 | 1011.7 |
| 20260501195008 | 29 | 228 | 3.2 | 9.7 | 0.00 | 0.00 | 0.00 | 24 | 1011.9 |
| 20260501194531 | 30 | 284 | 3.2 | 9.7 | 0.00 | 0.00 | 0.00 | 25 | 1011.9 |
| 20260501194010 | 30 | 292 | 1.6 | 6.4 | 0.00 | 0.00 | 0.00 | 23 | 1011.9 |
| 20260501193509 | 30 | 281 | 0.0 | 4.8 | 0.00 | 0.00 | 0.00 | 21 | 1012.0 |
| 20260501193023 | 30 | 210 | 1.6 | 8.0 | 0.00 | 0.00 | 0.00 | 23 | 1012.1 |
| 20260501192507 | 28 | 181 | 3.2 | 8.0 | 0.00 | 0.00 | 0.00 | 25 | 1012.2 |
| 20260501192009 | 28 | 190 | 0.0 | 9.7 | 0.00 | 0.00 | 0.00 | 25 | 1012.3 |
| 20260501191506 | 29 | 269 | 4.8 | 9.7 | 0.00 | 0.00 | 0.00 | 25 | 1012.3 |
| 20260501191008 | 29 | 196 | 1.6 | 8.0 | 0.00 | 0.00 | 0.00 | 25 | 1012.4 |
| 20260501190507 | 28 | 247 | 3.2 | 11.3 | 0.00 | 0.00 | 0.00 | 26 | 1012.5 |
| 20260501190029 | 28 | 251 | 4.8 | 11.3 | 0.00 | 0.00 | 0.00 | 26 | 1012.5 |
| 20260501185510 | 28 | 267 | 0.0 | 4.8 | 0.00 | 0.00 | 0.00 | 25 | 1012.5 |
| 20260501185010 | 28 | 326 | 1.6 | 4.8 | 0.00 | 0.00 | 0.00 | 26 | 1012.7 |
| 20260501184517 | 28 | 175 | 3.2 | 6.4 | 0.00 | 0.00 | 0.00 | 26 | 1012.8 |
| 20260501184008 | 28 | 194 | 1.6 | 9.7 | 0.00 | 0.00 | 0.00 | 25 | 1012.8 |
| 20260501183510 | 28 | 262 | 3.2 | 9.7 | 0.00 | 0.00 | 0.00 | 26 | 1012.9 |
| 20260501183022 | 27 | 152 | 1.6 | 6.4 | 0.00 | 0.00 | 0.00 | 27 | 1012.9 |
| 20260501182509 | 27 | 13 | 1.6 | 6.4 | 0.00 | 0.00 | 0.00 | 28 | 1013.0 |
| 20260501182013 | 27 | 206 | 1.6 | 8.0 | 0.00 | 0.00 | 0.00 | 28 | 1013.0 |
| 20260501181528 | 27 | 271 | 3.2 | 8.0 | 0.00 | 0.00 | 0.00 | 28 | 1013.1 |
| 20260501181008 | 27 | 238 | 1.6 | 6.4 | 0.00 | 0.00 | 0.00 | 29 | 1013.2 |
| 20260501180513 | 27 | 281 | 1.6 | 6.4 | 0.00 | 0.00 | 0.00 | 28 | 1013.3 |
| 20260501180031 | 27 | 203 | 3.2 | 4.8 | 0.00 | 0.00 | 0.00 | 29 | 1013.3 |
| 20260501175508 | 27 | 259 | 0.0 | 8.0 | 0.00 | 0.00 | 0.00 | 29 | 1013.3 |
| 20260501175015 | 26 | 232 | 0.0 | 8.0 | 0.00 | 0.00 | 0.00 | 30 | 1013.3 |
| 20260501174514 | 26 | 284 | 1.6 | 4.8 | 0.00 | 0.00 | 0.00 | 30 | 1013.4 |
| 20260501174005 | 26 | 308 | 1.6 | 9.7 | 0.00 | 0.00 | 0.00 | 30 | 1013.4 |
| 20260501173507 | 26 | 247 | 3.2 | 9.7 | 0.00 | 0.00 | 0.00 | 30 | 1013.4 |
| 20260501173027 | 26 | 217 | 1.6 | 6.4 | 0.00 | 0.00 | 0.00 | 31 | 1013.5 |
| 20260501172510 | 26 | 236 | 3.2 | 6.4 | 0.00 | 0.00 | 0.00 | 31 | 1013.6 |
| 20260501172010 | 26 | 256 | 1.6 | 3.2 | 0.00 | 0.00 | 0.00 | 31 | 1013.6 |
| 20260501171528 | 26 | 274 | 1.6 | 6.4 | 0.00 | 0.00 | 0.00 | 32 | 1013.6 |
| 20260501171009 | 25 | 240 | 1.6 | 6.4 | 0.00 | 0.00 | 0.00 | 32 | 1013.6 |
| 20260501170509 | 26 | 251 | 1.6 | 6.4 | 0.00 | 0.00 | 0.00 | 32 | 1013.6 |
| 20260501170027 | 25 | 243 | 1.6 | 6.4 | 0.00 | 0.00 | 0.00 | 32 | 1013.6 |
| 20260501165507 | 25 | 253 | 1.6 | 4.8 | 0.00 | 0.00 | 0.00 | 33 | 1013.6 |
| 20260501165012 | 25 | 246 | 1.6 | 4.8 | 0.00 | 0.00 | 0.00 | 33 | 1013.5 |
| 20260501164529 | 25 | 257 | 1.6 | 8.0 | 0.00 | 0.00 | 0.00 | 33 | 1013.5 |
| 20260501164008 | 25 | 250 | 1.6 | 8.0 | 0.00 | 0.00 | 0.00 | 34 | 1013.6 |
| 20260501163513 | 25 | 244 | 1.6 | 8.0 | 0.00 | 0.00 | 0.00 | 34 | 1013.6 |
| 20260501163016 | 25 | 216 | 3.2 | 8.0 | 0.00 | 0.00 | 0.00 | 34 | 1013.6 |
| 20260501162508 | 25 | 249 | 0.0 | 4.8 | 0.00 | 0.00 | 0.00 | 35 | 1013.6 |
| 20260501162014 | 24 | 221 | 0.0 | 4.8 | 0.00 | 0.00 | 0.00 | 35 | 1013.6 |
| 20260501161522 | 24 | 219 | 1.6 | 4.8 | 0.00 | 0.00 | 0.00 | 35 | 1013.6 |
| 20260501161008 | 24 | 259 | 1.6 | 3.2 | 0.00 | 0.00 | 0.00 | 35 | 1013.5 |
| 20260501160510 | 24 | 210 | 0.0 | 3.2 | 0.00 | 0.00 | 0.00 | 35 | 1013.5 |
| 20260501160023 | 24 | 219 | 0.0 | 3.2 | 0.00 | 0.00 | 0.00 | 36 | 1013.5 |
| 20260501155510 | 25 | 231 | 0.0 | 3.2 | 0.00 | 0.00 | 0.00 | 35 | 1013.5 |
| 20260501155011 | 24 | 236 | 0.0 | 3.2 | 0.00 | 0.00 | 0.00 | 36 | 1013.4 |
| 20260501154528 | 24 | 165 | 0.0 | 3.2 | 0.00 | 0.00 | 0.00 | 36 | 1013.4 |
| 20260501154011 | 23 | 171 | 0.0 | 3.2 | 0.00 | 0.00 | 0.00 | 37 | 1013.3 |
| 20260501153513 | 23 | 155 | 0.0 | 3.2 | 0.00 | 0.00 | 0.00 | 37 | 1013.3 |
| 20260501153055 | 23 | 121 | 0.0 | 3.2 | 0.00 | 0.00 | 0.00 | 37 | 1013.3 |
| 20260501152508 | 23 | 188 | 0.0 | 3.2 | 0.00 | 0.00 | 0.00 | 38 | 1013.2 |
| 20260501152011 | 23 | 226 | 0.0 | 3.2 | 0.00 | 0.00 | 0.00 | 38 | 1013.1 |
| 20260501151518 | 23 | 82 | 1.6 | 4.8 | 0.00 | 0.00 | 0.00 | 37 | 1013.1 |
| 20260501151009 | 23 | 61 | 0.0 | 4.8 | 0.00 | 0.00 | 0.00 | 37 | 1013.0 |
| 20260501150508 | 23 | 199 | 0.0 | 3.2 | 0.00 | 0.00 | 0.00 | 38 | 1013.0 |
| 20260501150022 | 22 | 178 | 0.0 | 3.2 | 0.00 | 0.00 | 0.00 | 39 | 1013.0 |
| 20260501145507 | 22 | 101 | 0.0 | 3.2 | 0.00 | 0.00 | 0.00 | 39 | 1012.9 |
| 20260501145008 | 22 | 33 | 0.0 | 1.6 | 0.00 | 0.00 | 0.00 | 39 | 1012.9 |
| 20260501144506 | 22 | 3 | 0.0 | 3.2 | 0.00 | 0.00 | 0.00 | 40 | 1012.8 |
| 20260501144005 | 22 | 255 | 0.0 | 3.2 | 0.00 | 0.00 | 0.00 | 39 | 1012.8 |
| 20260501143509 | 22 | 359 | 0.0 | 6.4 | 0.00 | 0.00 | 0.00 | 40 | 1012.7 |
| 20260501143012 | 21 | 53 | 0.0 | 6.4 | 0.00 | 0.00 | 0.00 | 40 | 1012.6 |
| 20260501142506 | 21 | 86 | 1.6 | 6.4 | 0.00 | 0.00 | 0.00 | 40 | 1012.5 |
| 20260501142005 | 21 | 123 | 3.2 | 6.4 | 0.00 | 0.00 | 0.00 | 41 | 1012.5 |
| 20260501141521 | 20 | 92 | 1.6 | 4.8 | 0.00 | 0.00 | 0.00 | 42 | 1012.4 |
| 20260501141009 | 20 | 91 | 1.6 | 4.8 | 0.00 | 0.00 | 0.00 | 42 | 1012.4 |
| 20260501140507 | 20 | 100 | 0.0 | 4.8 | 0.00 | 0.00 | 0.00 | 42 | 1012.4 |
| 20260501140023 | 20 | 200 | 0.0 | 3.2 | 0.00 | 0.00 | 0.00 | 42 | 1012.3 |
| 20260501135502 | 20 | 136 | 1.6 | 3.2 | 0.00 | 0.00 | 0.00 | 42 | 1012.2 |
| 20260501135004 | 20 | 148 | 1.6 | 6.4 | 0.00 | 0.00 | 0.00 | 42 | 1012.1 |
| 20260501134504 | 20 | 90 | 3.2 | 6.4 | 0.00 | 0.00 | 0.00 | 42 | 1012.1 |
| 20260501134003 | 20 | 120 | 0.0 | 1.6 | 0.00 | 0.00 | 0.00 | 42 | 1012.0 |
| 20260501133503 | 20 | 125 | 0.0 | 3.2 | 0.00 | 0.00 | 0.00 | 42 | 1012.0 |